EST,Max TemperatureF,Mean TemperatureF,Min TemperatureF,Max Dew PointF,MeanDew PointF,Min DewpointF,Max Humidity, Mean Humidity, Min Humidity, Max Sea Level PressureIn, Mean Sea Level PressureIn, Min Sea Level PressureIn, Max VisibilityMiles, Mean VisibilityMiles, Min VisibilityMiles, Max Wind SpeedMPH, Mean Wind SpeedMPH, Max Gust SpeedMPH,PrecipitationIn, CloudCover, Events, WindDirDegrees
2012-12-1,70,52,35,49,39,34,100,83,41,30.37,30.30,30.25,10,7,2,7,0,29,0.00,3,,150
2012-12-2,73,56,39,54,45,38,97,78,42,30.36,30.29,30.22,10,9,7,6,1,,0.00,1,,202
2012-12-3,72,54,37,52,46,37,100,78,40,30.32,30.25,30.19,10,9,6,0,0,,0.00,2,,-1
2012-12-4,75,59,43,54,49,42,97,73,34,30.30,30.22,30.16,10,10,6,6,1,,0.00,5,,205
2012-12-5,61,56,52,61,56,48,100,93,72,30.24,30.18,30.12,10,7,2,10,1,,0.12,8,Rain,341
2012-12-6,66,58,50,49,46,43,93,71,35,30.16,30.11,30.07,10,10,10,12,2,,0.00,6,,109
2012-12-7,62,56,51,50,46,43,89,73,55,30.10,30.04,29.96,10,10,10,9,3,,0.00,6,,141
2012-12-8,61,56,50,59,54,48,97,92,81,30.04,30.00,29.96,10,9,5,6,1,,0.00,8,,163
2012-12-9,73,64,55,61,57,53,100,84,55,30.06,30.00,29.91,10,8,4,9,2,,0.00,6,Rain,183
2012-12-10,66,56,46,62,57,40,100,94,77,29.91,29.78,29.68,10,8,2,13,4,18,0.71,8,Rain-Thunderstorm,226
2012-12-11,45,40,35,38,32,30,89,76,61,30.17,30.06,29.91,10,10,10,10,6,,0.00,4,,352
2012-12-12,52,44,36,34,30,28,76,63,44,30.27,30.22,30.17,10,10,10,10,6,,0.00,2,,1
2012-12-13,57,44,30,35,32,28,96,67,35,30.38,30.32,30.26,10,10,10,6,3,,0.00,2,,11
2012-12-14,60,44,28,37,32,26,96,73,26,30.40,30.30,30.20,10,10,8,5,0,,0.00,0,,336
2012-12-15,61,49,37,47,42,36,93,72,54,30.21,30.12,30.03,10,10,10,22,3,28,0.00,5,,165
2012-12-16,57,54,51,57,53,46,100,95,77,30.01,29.95,29.82,10,6,1,13,2,30,0.55,8,Rain,125
2012-12-17,61,56,51,59,54,52,100,98,86,29.84,29.76,29.67,10,7,1,8,1,,0.12,6,Rain,187
2012-12-18,60,48,35,55,41,34,100,76,38,30.00,29.90,29.73,10,10,9,8,4,,0.00,0,,274
2012-12-19,66,48,30,49,40,30,100,81,41,30.12,30.04,30.01,10,10,6,4,0,,0.00,0,,-1
2012-12-20,55,47,39,55,45,27,100,88,53,30.02,29.81,29.66,10,7,1,22,4,32,0.16,7,Rain,191
2012-12-21,46,40,33,23,18,13,57,42,22,30.23,30.07,29.94,10,10,10,17,12,31,0.00,0,,288
2012-12-22,51,39,27,23,16,12,81,47,21,30.34,30.25,30.21,10,10,10,8,4,,0.00,0,,306
2012-12-23,54,38,23,35,27,21,88,63,33,30.22,30.13,30.01,10,10,10,24,1,,0.00,4,,174
2012-12-24,60,52,43,55,50,33,100,97,52,29.99,29.90,29.83,10,5,0,6,2,28,0.67,7,Fog-Rain,89
2012-12-25,51,50,48,52,49,48,100,98,88,30.01,29.91,29.66,10,4,0,15,4,22,1.30,8,Fog-Rain,45
2012-12-26,51,43,35,54,39,29,96,83,66,30.03,29.68,29.43,10,9,5,16,11,30,0.16,8,Rain,242
2012-12-27,42,35,28,30,28,26,93,74,57,30.14,30.09,30.04,10,10,10,16,8,47,0.00,6,,339
2012-12-28,48,38,28,41,34,27,96,81,52,30.14,30.02,29.84,10,9,4,10,2,,0.41,6,Rain,92
2012-12-29,42,38,35,41,35,26,100,85,70,30.29,29.98,29.80,10,8,3,13,6,22,0.08,8,Rain,277
2012-12-30,45,36,27,26,23,20,89,64,35,30.50,30.40,30.30,10,10,10,14,8,22,0.00,2,,352
2012-12-31,50,38,26,37,30,24,96,73,43,30.40,30.30,30.12,10,10,10,16,0,26,0.00,3,,175